Simultaneous Nadir Overpasses (SNOs) Predictions

Prediction of SNOs near equator between AQUA and NPP Satellite Orbit:

Table of predicted SNOs near equator for the next 14.0 days since TLE Epoch: 1/17/2014
Index Date (AQUA) Time (AQUA) AQUA Lat,Lon Date (NPP) Time (NPP) NPP Lat,Lon Distance(km) Time Diff (sec)
1 01/18/2014 22:37:25 -29.97, 39.85 01/18/2014 22:27:37 -29.97, 39.92 7.40 588
2 01/18/2014 23:21:45 11.26,-148.12 01/18/2014 23:13:07 11.26,-148.12 0.24 518
3 01/19/2014 00:07:11 3.01, 22.59 01/18/2014 23:59:44 3.04, 22.44 17.12 447
4 01/19/2014 00:55:25 -7.66,-168.79 01/19/2014 00:49:14 -7.71,-169.21 46.45 371
5 01/19/2014 01:43:33 12.15, -0.16 01/19/2014 01:38:37 12.27, -0.83 74.48 296
6 01/21/2014 14:53:32 -28.46, 156.11 01/21/2014 14:44:09 -28.46, 156.11 0.21 563
7 01/21/2014 15:36:05 3.28, -30.53 01/21/2014 15:27:49 3.28, -30.54 0.46 496
8 01/21/2014 16:23:18 4.53, 138.79 01/21/2014 16:16:16 4.56, 138.56 25.80 422
9 01/21/2014 17:11:34 -9.05, -52.62 01/21/2014 17:05:47 -9.17, -53.10 54.79 347
10 01/21/2014 17:59:41 13.60, 116.03 01/21/2014 17:55:09 13.78, 115.30 82.40 272
11 01/24/2014 06:21:06 29.99, 103.93 01/24/2014 06:11:06 30.81, 103.91 91.69 600
12 01/24/2014 07:08:09 -21.58, -86.33 01/24/2014 06:59:09 -21.58, -86.33 0.20 540
13 01/24/2014 07:51:17 -1.52, 86.36 01/24/2014 07:43:25 -1.52, 86.32 5.26 472
14 01/24/2014 08:39:25 6.01,-105.02 01/24/2014 08:32:48 6.07,-105.33 34.49 397
15 01/24/2014 09:27:39 -10.65, 63.60 01/24/2014 09:22:18 -10.74, 63.03 63.19 321
16 01/24/2014 10:15:47 15.13,-127.75 01/24/2014 10:11:41 15.29,-128.58 90.27 246
17 01/26/2014 22:37:37 30.00,-140.19 01/26/2014 22:27:50 30.02,-140.10 9.59 587
18 01/26/2014 23:22:28 -13.64, 31.36 01/26/2014 23:13:51 -13.64, 31.36 0.19 517
19 01/27/2014 00:07:22 -3.08,-157.43 01/26/2014 23:59:56 -3.08,-157.56 14.50 446
20 01/27/2014 00:55:29 7.63, 11.21 01/27/2014 00:49:18 7.69, 10.82 43.33 371
21 01/27/2014 01:43:45 -12.15, 179.81 01/27/2014 01:38:49 -12.30, 179.17 71.60 296
22 01/27/2014 02:31:53 16.63, -11.54 01/27/2014 02:28:12 16.85, -12.43 98.14 221
23 01/29/2014 14:54:06 29.98, -24.31 01/29/2014 14:44:46 29.99, -24.31 1.27 560
24 01/29/2014 15:36:28 -4.63, 149.19 </
